Time,TemperatureF,DewpointF,PressureIn,WindDirection,WindDirectionDegrees,WindSpeedMPH,WindSpeedGustMPH,Humidity,HourlyPrecipIn,Conditions,Clouds,dailyrainin,SoftwareType,DateUTC
2013-11-14 00:00:00,30.7,20.7,30.13,WSW,248,4.0,15.0,66,0.00,,,0.00,Weather View 32 v70,2013-11-14 05:00:00,
2013-11-14 00:01:00,30.7,20.7,30.13,WSW,244,3.0,15.0,66,0.00,,,0.00,Weather View 32 v70,2013-11-14 05:01:00,
2013-11-14 00:02:00,30.7,20.7,30.13,WSW,256,1.0,15.0,66,0.00,,,0.00,Weather View 32 v70,2013-11-14 05:02:00,
2013-11-14 00:07:00,30.8,20.8,30.13,SW,235,4.0,15.0,66,0.00,,,0.00,Weather View 32 v70,2013-11-14 05:07:00,
2013-11-14 00:12:00,30.8,20.8,30.13,SW,232,2.0,15.0,66,0.00,,,0.00,Weather View 32 v70,2013-11-14 05:12:00,
2013-11-14 00:17:00,30.8,20.4,30.14,WNW,286,3.0,15.0,65,0.00,,,0.00,Weather View 32 v70,2013-11-14 05:17:00,
2013-11-14 00:22:00,30.8,20.8,30.14,West,272,10.0,15.0,66,0.00,,,0.00,Weather View 32 v70,2013-11-14 05:22:00,
2013-11-14 00:27:00,30.7,20.7,30.14,WSW,244,9.0,15.0,66,0.00,,,0.00,Weather View 32 v70,2013-11-14 05:27:00,
2013-11-14 00:32:00,30.7,20.7,30.14,WSW,239,0.0,15.0,66,0.00,,,0.00,Weather View 32 v70,2013-11-14 05:32:00,
2013-11-14 00:37:00,30.5,20.5,30.14,WNW,292,0.0,15.0,66,0.00,,,0.00,Weather View 32 v70,2013-11-14 05:37:00,
2013-11-14 00:42:00,30.3,20.3,30.14,WSW,254,1.0,15.0,66,0.00,,,0.00,Weather View 32 v70,2013-11-14 05:42:00,
2013-11-14 00:47:00,30.2,20.6,30.14,WSW,242,1.0,15.0,67,0.00,,,0.00,Weather View 32 v70,2013-11-14 05:47:00,
2013-11-14 00:52:00,30.1,20.1,30.14,WNW,288,0.0,15.0,66,0.00,,,0.00,Weather View 32 v70,2013-11-14 05:52:00,
2013-11-14 00:57:00,30.0,20.4,30.14,WSW,254,0.0,15.0,67,0.00,,,0.00,Weather View 32 v70,2013-11-14 05:57:00,
2013-11-14 01:02:00,30.1,20.1,30.14,WSW,242,2.0,15.0,66,0.00,,,0.00,Weather View 32 v70,2013-11-14 06:02:00,
2013-11-14 01:07:00,30.0,20.4,30.14,SW,229,0.0,15.0,67,0.00,,,0.00,Weather View 32 v70,2013-11-14 06:07:00,
2013-11-14 01:12:00,29.9,20.3,30.14,WNW,284,3.0,15.0,67,0.00,,,0.00,Weather View 32 v70,2013-11-14 06:12:00,
2013-11-14 01:17:00,29.7,20.1,30.14,SW,234,2.0,14.0,67,0.00,,,0.00,Weather View 32 v70,2013-11-14 06:17:00,
2013-11-14 01:22:00,29.6,20.3,30.14,West,261,0.0,12.0,68,0.00,,,0.00,Weather View 32 v70,2013-11-14 06:22:00,
2013-11-14 01:27:00,29.6,20.3,30.13,WSW,252,0.0,11.0,68,0.00,,,0.00,Weather View 32 v70,2013-11-14 06:27:00,
2013-11-14 01:32:00,29.5,20.2,30.14,WSW,256,0.0,11.0,68,0.00,,,0.00,Weather View 32 v70,2013-11-14 06:32:00,
2013-11-14 01:37:00,29.4,20.1,30.14,WSW,246,0.0,11.0,68,0.00,,,0.00,Weather View 32 v70,2013-11-14 06:37:00,
2013-11-14 01:42:00,29.2,20.3,30.14,SW,217,0.0,11.0,69,0.00,,,0.00,Weather View 32 v70,2013-11-14 06:42:00,
2013-11-14 01:47:00,29.0,20.1,30.14,SW,221,0.0,11.0,69,0.00,,,0.00,Weather View 32 v70,2013-11-14 06:47:00,
2013-11-14 01:52:00,28.8,19.9,30.14,SW,220,0.0,11.0,69,0.00,,,0.00,Weather View 32 v70,2013-11-14 06:52:00,
2013-11-14 01:57:00,28.7,19.8,30.14,WSW,247,0.0,11.0,69,0.00,,,0.00,Weather View 32 v70,2013-11-14 06:57:00,
2013-11-14 02:02:00,28.9,20.0,30.14,West,277,0.0,10.0,69,0.00,,,0.00,Weather View 32 v70,2013-11-14 07:02:00,
2013-11-14 02:07:00,28.9,20.0,30.13,SSW,209,0.0,10.0,69,0.00,,,0.00,Weather View 32 v70,2013-11-14 07:07:00,
2013-11-14 02:12:00,28.9,20.0,30.13,West,269,1.0,10.0,69,0.00,,,0.00,Weather View 32 v70,2013-11-14 07:12:00,
2013-11-14 02:17:00,28.8,20.2,30.13,WSW,240,10.0,10.0,70,0.00,,,0.00,Weather View 32 v70,2013-11-14 07:17:00,
2013-11-14 02:22:00,28.8,19.9,30.14,WSW,254,0.0,10.0,69,0.00,,,0.00,Weather View 32 v70,2013-11-14 07:22:00,
2013-11-14 02:27:00,28.8,20.2,30.14,WSW,245,2.0,10.0,70,0.00,,,0.00,Weather View 32 v70,2013-11-14 07:27:00,
2013-11-14 02:32:00,28.8,19.9,30.14,WSW,252,0.0,10.0,69,0.00,,,0.00,Weather View 32 v70,2013-11-14 07:32:00,
2013-11-14 02:37:00,28.8,20.2,30.14,WSW,258,0.0,10.0,70,0.00,,,0.00,Weather View 32 v70,2013-11-14 07:37:00,
2013-11-14 02:42:00,28.8,20.2,30.14,West,269,0.0,13.0,70,0.00,,,0.00,Weather View 32 v70,2013-11-14 07:42:00,
2013-11-14 02:47:00,28.7,20.2,30.14,West,260,0.0,13.0,70,0.00,,,0.00,Weather View 32 v70,2013-11-14 07:47:00,
2013-11-14 02:52:00,28.5,20.0,30.13,WSW,237,3.0,13.0,70,0.00,,,0.00,Weather View 32 v70,2013-11-14 07:52:00,
2013-11-14 02:57:00,28.4,20.2,30.13,WSW,237,0.0,13.0,71,0.00,,,0.00,Weather View 32 v70,2013-11-14 07:57:00,
2013-11-14 03:02:00,28.3,20.1,30.13,WSW,245,3.0,13.0,71,0.00,,,0.00,Weather View 32 v70,2013-11-14 08:02:00,
2013-11-14 03:07:00,28.1,19.9,30.13,WSW,254,1.0,13.0,71,0.00,,,0.00,Weather View 32 v70,2013-11-14 08:07:00,
2013-11-14 03:12:00,28.0,20.1,30.13,WSW,253,0.0,13.0,72,0.00,,,0.00,Weather View 32 v70,2013-11-14 08:12:00,
2013-11-14 03:17:00,27.8,19.9,30.14,WSW,253,0.0,13.0,72,0.00,,,0.00,Weather View 32 v70,2013-11-14 08:17:00,
2013-11-14 03:24:00,27.7,19.9,30.14,WSW,254,0.0,13.0,72,0.00,,,0.00,Weather View 32 v70,2013-11-14 08:24:00,
2013-11-14 03:29:00,27.2,20.0,30.14,West,259,0.0,13.0,74,0.00,,,0.00,Weather View 32 v70,2013-11-14 08:29:00,
2013-11-14 03:34:00,27.0,20.1,30.13,West,259,0.0,13.0,75,0.00,,,0.00,Weather View 32 v70,2013-11-14 08:34:00,
2013-11-14 03:39:00,26.8,19.9,30.13,West,259,0.0,13.0,75,0.00,,,0.00,Weather View 32 v70,2013-11-14 08:39:00,
2013-11-14 03:44:00,26.5,19.6,30.13,West,259,0.0,5.0,75,0.00,,,0.00,Weather View 32 v70,2013-11-14 08:44:00,
2013-11-14 03:49:00,26.3,19.8,30.13,West,259,0.0,5.0,76,0.00,,,0.00,Weather View 32 v70,2013-11-14 08:49:00,
2013-11-14 03:54:00,26.0,19.5,30.13,West,259,0.0,5.0,76,0.00,,,0.00,Weather View 32 v70,2013-11-14 08:54:00,
2013-11-14 03:59:00,25.8,19.6,30.13,West,259,0.0,5.0,77,0.00,,,0.00,Weather View 32 v70,2013-11-14 08:59:00,
2013-11-14 04:04:00,25.7,19.8,30.13,West,259,0.0,5.0,78,0.00,,,0.00,Weather View 32 v70,2013-11-14 09:04:00,
2013-11-14 04:09:00,25.6,20.0,30.13,WSW,249,0.0,4.0,79,0.00,,,0.00,Weather View 32 v70,2013-11-14 09:09:00,
2013-11-14 04:14:00,25.7,20.1,30.13,WSW,249,0.0,4.0,79,0.00,,,0.00,Weather View 32 v70,2013-11-14 09:14:00,
2013-11-14 04:19:00,25.7,20.1,30.12,WSW,249,0.0,4.0,79,0.00,,,0.00,Weather View 32 v70,2013-11-14 09:19:00,
2013-11-14 04:24:00,25.9,20.3,30.12,WSW,249,0.0,4.0,79,0.00,,,0.00,Weather View 32 v70,2013-11-14 09:24:00,
2013-11-14 04:29:00,26.0,20.1,30.12,WSW,253,0.0,5.0,78,0.00,,,0.00,Weather View 32 v70,2013-11-14 09:29:00,
2013-11-14 04:34:00,26.1,20.2,30.13,WSW,253,0.0,5.0,78,0.00,,,0.00,Weather View 32 v70,2013-11-14 09:34:00,
2013-11-14 04:39:00,26.1,20.2,30.12,WSW,253,0.0,5.0,78,0.00,,,0.00,Weather View 32 v70,2013-11-14 09:39:00,
2013-11-14 04:44:00,26.1,20.2,30.12,WSW,253,0.0,5.0,78,0.00,,,0.00,Weather View 32 v70,2013-11-14 09:44:00,
2013-11-14 04:49:00,26.2,20.3,30.12,WSW,253,0.0,5.0,78,0.00,,,0.00,Weather View 32 v70,2013-11-14 09:49:00,
2013-11-14 04:55:00,26.3,20.4,30.12,WSW,253,0.0,5.0,78,0.00,,,0.00,Weather View 32 v70,2013-11-14 09:55:00,
2013-11-14 05:00:00,26.4,20.5,30.12,WSW,238,0.0,6.0,78,0.00,,,0.00,Weather View 32 v70,2013-11-14 10:00:00,
2013-11-14 05:05:00,26.6,20.4,30.12,WSW,248,0.0,6.0,77,0.00,,,0.00,Weather View 32 v70,2013-11-14 10:05:00,
2013-11-14 05:10:00,26.8,20.6,30.12,SW,223,0.0,6.0,77,0.00,,,0.00,Weather View 32 v70,2013-11-14 10:10:00,
2013-11-14 05:15:00,26.9,20.7,30.12,WSW,246,0.0,6.0,77,0.00,,,0.00,Weather View 32 v70,2013-11-14 10:15:00,
2013-11-14 05:20:00,27.0,20.8,30.11,WSW,250,1.0,6.0,77,0.00,,,0.00,Weather View 32 v70,2013-11-14 10:20:00,
2013-11-14 05:25:00,27.1,20.8,30.11,WSW,250,0.0,6.0,77,0.00,,,0.00,Weather View 32 v70,2013-11-14 10:25:00,
2013-11-14 05:30:00,27.1,20.5,30.11,WSW,249,0.0,6.0,76,0.00,,,0.00,Weather View 32 v70,2013-11-14 10:30:00,
2013-11-14 05:35:00,27.1,20.8,30.11,WSW,246,1.0,6.0,77,0.00,,,0.00,Weather View 32 v70,2013-11-14 10:35:00,
2013-11-14 05:40:00,27.2,20.6,30.11,SSE,165,0.0,6.0,76,0.00,,,0.00,Weather View 32 v70,2013-11-14 10:40:00,
2013-11-14 05:45:00,27.3,20.7,30.11,WSW,238,1.0,6.0,76,0.00,,,0.00,Weather View 32 v70,2013-11-14 10:45:00,
2013-11-14 05:50:00,27.5,20.9,30.11,WSW,240,3.0,6.0,76,0.00,,,0.00,Weather View 32 v70,2013-11-14 10:50:00,
2013-11-14 05:55:00,27.6,21.0,30.10,WSW,248,4.0,6.0,76,0.00,,,0.00,Weather View 32 v70,2013-11-14 10:55:00,
2013-11-14 06:00:00,27.7,21.1,30.10,WSW,248,0.0,6.0,76,0.00,,,0.00,Weather View 32 v70,2013-11-14 11:00:00,
2013-11-14 06:05:00,27.8,20.9,30.10,WSW,238,1.0,7.0,75,0.00,,,0.00,Weather View 32 v70,2013-11-14 11:05:00,
2013-11-14 06:10:00,27.8,20.9,30.10,SW,233,0.0,7.0,75,0.00,,,0.00,Weather View 32 v70,2013-11-14 11:10:00,
2013-11-14 06:15:00,27.9,21.0,30.10,SW,234,4.0,7.0,75,0.00,,,0.00,Weather View 32 v70,2013-11-14 11:15:00,
2013-11-14 06:20:00,28.0,21.1,30.10,WSW,250,0.0,7.0,75,0.00,,,0.00,Weather View 32 v70,2013-11-14 11:20:00,
2013-11-14 06:25:00,28.1,21.2,30.10,WSW,250,0.0,9.0,75,0.00,,,0.00,Weather View 32 v70,2013-11-14 11:25:00,
2013-11-14 06:30:00,28.2,21.3,30.10,WSW,242,0.0,9.0,75,0.00,,,0.00,Weather View 32 v70,2013-11-14 11:30:00,
2013-11-14 06:35:00,28.2,21.0,30.09,WSW,248,0.0,9.0,74,0.00,,,0.00,Weather View 32 v70,2013-11-14 11:35:00,
2013-11-14 06:40:00,28.1,21.2,30.09,SSW,203,0.0,9.0,75,0.00,,,0.00,Weather View 32 v70,2013-11-14 11:40:00,
2013-11-14 06:45:00,28.2,21.3,30.10,WSW,246,0.0,9.0,75,0.00,,,0.00,Weather View 32 v70,2013-11-14 11:45:00,
2013-11-14 06:50:00,28.2,21.3,30.09,WSW,253,0.0,9.0,75,0.00,,,0.00,Weather View 32 v70,2013-11-14 11:50:00,
2013-11-14 06:55:00,28.2,21.3,30.09,WSW,249,1.0,9.0,75,0.00,,,0.00,Weather View 32 v70,2013-11-14 11:55:00,
2013-11-14 07:00:00,28.3,21.4,30.09,West,275,0.0,10.0,75,0.00,,,0.00,Weather View 32 v70,2013-11-14 12:00:00,
2013-11-14 07:05:00,28.4,21.5,30.09,WSW,252,4.0,10.0,75,0.00,,,0.00,Weather View 32 v70,2013-11-14 12:05:00,
2013-11-14 07:10:00,28.5,21.6,30.10,SW,225,0.0,10.0,75,0.00,,,0.00,Weather View 32 v70,2013-11-14 12:10:00,
2013-11-14 07:15:00,28.6,21.7,30.10,West,261,0.0,10.0,75,0.00,,,0.00,Weather View 32 v70,2013-11-14 12:15:00,
2013-11-14 07:20:00,28.7,21.8,30.09,WSW,254,2.0,10.0,75,0.00,,,0.00,Weather View 32 v70,2013-11-14 12:20:00,
2013-11-14 07:26:00,28.7,21.8,30.09,SW,222,2.0,10.0,75,0.00,,,0.00,Weather View 32 v70,2013-11-14 12:26:00,
2013-11-14 07:31:00,28.7,21.8,30.09,West,279,0.0,10.0,75,0.00,,,0.00,Weather View 32 v70,2013-11-14 12:31:00,
2013-11-14 07:36:00,28.7,21.8,30.09,WSW,243,3.0,10.0,75,0.00,,,0.00,Weather View 32 v70,2013-11-14 12:36:00,
2013-11-14 07:41:00,28.7,21.8,30.09,West,271,3.0,10.0,75,0.00,,,0.00,Weather View 32 v70,2013-11-14 12:41:00,
2013-11-14 07:46:00,28.8,21.9,30.09,West,280,5.0,10.0,75,0.00,,,0.00,Weather View 32 v70,2013-11-14 12:46:00,
2013-11-14 07:51:00,29.0,21.8,30.08,WSW,246,2.0,14.0,74,0.00,,,0.00,Weather View 32 v70,2013-11-14 12:51:00,
2013-11-14 07:56:00,29.2,21.9,30.08,WSW,250,2.0,14.0,74,0.00,,,0.00,Weather View 32 v70,2013-11-14 12:56:00,
2013-11-14 08:01:00,29.2,21.9,30.08,West,268,5.0,14.0,74,0.00,,,0.00,Weather View 32 v70,2013-11-14 13:01:00,
2013-11-14 08:06:00,29.3,22.0,30.08,West,265,6.0,14.0,74,0.00,,,0.00,Weather View 32 v70,2013-11-14 13:06:00,
2013-11-14 08:11:00,29.4,22.1,30.08,SW,225,2.0,14.0,74,0.00,,,0.00,Weather View 32 v70,2013-11-14 13:11:00,
2013-11-14 08:16:00,29.5,22.2,30.08,WSW,252,4.0,14.0,74,0.00,,,0.00,Weather View 32 v70,2013-11-14 13:16:00,
2013-11-14 08:21:00,29.7,22.1,30.08,West,260,4.0,14.0,73,0.00,,,0.00,Weather View 32 v70,2013-11-14 13:21:00,
2013-11-14 08:26:00,29.9,22.6,30.09,WSW,246,0.0,14.0,74,0.00,,,0.00,Weather View 32 v70,2013-11-14 13:26:00,
2013-11-14 08:31:00,30.0,22.4,30.09,SW,219,4.0,14.0,73,0.00,,,0.00,Weather View 32 v70,2013-11-14 13:31:00,
2013-11-14 08:36:00,30.1,22.5,30.09,SSW,201,3.0,14.0,73,0.00,,,0.00,Weather View 32 v70,2013-11-14 13:36:00,
2013-11-14 08:41:00,30.4,22.8,30.09,WSW,258,0.0,14.0,73,0.00,,,0.00,Weather View 32 v70,2013-11-14 13:41:00,
2013-11-14 08:46:00,30.7,22.7,30.09,WSW,248,5.0,14.0,72,0.00,,,0.00,Weather View 32 v70,2013-11-14 13:46:00,
2013-11-14 08:51:00,31.0,23.0,30.09,WNW,282,3.0,12.0,72,0.00,,,0.00,Weather View 32 v70,2013-11-14 13:51:00,
2013-11-14 08:56:00,31.2,23.2,30.09,West,263,0.0,12.0,72,0.00,,,0.00,Weather View 32 v70,2013-11-14 13:56:00,
2013-11-14 09:01:00,31.7,23.4,30.10,SW,226,10.0,12.0,71,0.00,,,0.00,Weather View 32 v70,2013-11-14 14:01:00,
2013-11-14 09:06:00,32.1,23.4,30.09,SW,229,2.0,12.0,70,0.00,,,0.00,Weather View 32 v70,2013-11-14 14:06:00,
2013-11-14 09:11:00,32.5,23.8,30.10,West,275,7.0,12.0,70,0.00,,,0.00,Weather View 32 v70,2013-11-14 14:11:00,
2013-11-14 09:16:00,32.8,23.7,30.10,WSW,250,1.0,12.0,69,0.00,,,0.00,Weather View 32 v70,2013-11-14 14:16:00,
2013-11-14 09:21:00,33.1,23.7,30.10,SSW,207,0.0,12.0,68,0.00,,,0.00,Weather View 32 v70,2013-11-14 14:21:00,
2013-11-14 09:26:00,33.4,23.6,30.10,West,263,1.0,12.0,67,0.00,,,0.00,Weather View 32 v70,2013-11-14 14:26:00,
2013-11-14 09:31:00,33.6,23.8,30.09,West,263,4.0,12.0,67,0.00,,,0.00,Weather View 32 v70,2013-11-14 14:31:00,
2013-11-14 09:36:00,34.0,23.8,30.09,SW,223,4.0,16.0,66,0.00,,,0.00,Weather View 32 v70,2013-11-14 14:36:00,
2013-11-14 09:41:00,34.4,24.2,30.09,WSW,250,1.0,16.0,66,0.00,,,0.00,Weather View 32 v70,2013-11-14 14:41:00,
2013-11-14 09:46:00,34.9,24.3,30.09,SW,225,2.0,16.0,65,0.00,,,0.00,Weather View 32 v70,2013-11-14 14:46:00,
2013-11-14 09:47:00,35.0,24.4,30.09,SW,222,3.0,16.0,65,0.00,,,0.00,Weather View 32 v70,2013-11-14 14:47:00,
2013-11-14 09:52:00,35.5,24.5,30.09,West,276,6.0,16.0,64,0.00,,,0.00,Weather View 32 v70,2013-11-14 14:52:00,
2013-11-14 09:57:00,35.9,24.5,30.08,WSW,252,2.0,16.0,63,0.00,,,0.00,Weather View 32 v70,2013-11-14 14:57:00,
2013-11-14 10:02:00,36.4,25.0,30.08,West,265,0.0,16.0,63,0.00,,,0.00,Weather View 32 v70,2013-11-14 15:02:00,
2013-11-14 10:07:00,37.0,25.2,30.08,West,261,3.0,16.0,62,0.00,,,0.00,Weather View 32 v70,2013-11-14 15:07:00,
2013-11-14 10:12:00,37.4,25.2,30.08,West,263,0.0,16.0,61,0.00,,,0.00,Weather View 32 v70,2013-11-14 15:12:00,
2013-11-14 10:17:00,37.8,25.5,30.08,WSW,252,4.0,16.0,61,0.00,,,0.00,Weather View 32 v70,2013-11-14 15:17:00,
2013-11-14 10:22:00,38.2,25.1,30.08,West,277,0.0,16.0,59,0.00,,,0.00,Weather View 32 v70,2013-11-14 15:22:00,
2013-11-14 10:27:00,38.5,25.8,30.08,WSW,240,0.0,16.0,60,0.00,,,0.00,Weather View 32 v70,2013-11-14 15:27:00,
2013-11-14 10:32:00,38.7,25.2,30.08,SSW,211,0.0,16.0,58,0.00,,,0.00,Weather View 32 v70,2013-11-14 15:32:00,
2013-11-14 10:37:00,39.0,25.5,30.08,South,183,1.0,16.0,58,0.00,,,0.00,Weather View 32 v70,2013-11-14 15:37:00,
2013-11-14 10:42:00,39.3,26.2,30.08,South,174,1.0,16.0,59,0.00,,,0.00,Weather View 32 v70,2013-11-14 15:42:00,
2013-11-14 10:47:00,39.6,25.6,30.08,West,267,6.0,16.0,57,0.00,,,0.00,Weather View 32 v70,2013-11-14 15:47:00,
2013-11-14 10:52:00,39.9,26.3,30.07,SSW,209,0.0,16.0,58,0.00,,,0.00,Weather View 32 v70,2013-11-14 15:52:00,
2013-11-14 10:57:00,40.2,26.2,30.07,SW,223,0.0,16.0,57,0.00,,,0.00,Weather View 32 v70,2013-11-14 15:57:00,
2013-11-14 11:02:00,40.5,26.9,30.07,SW,236,6.0,16.0,58,0.00,,,0.00,Weather View 32 v70,2013-11-14 16:02:00,
2013-11-14 11:07:00,40.6,26.5,30.07,SW,219,4.0,16.0,57,0.00,,,0.00,Weather View 32 v70,2013-11-14 16:07:00,
2013-11-14 11:12:00,41.1,26.6,30.06,SSW,206,1.0,16.0,56,0.00,,,0.00,Weather View 32 v70,2013-11-14 16:12:00,
2013-11-14 11:17:00,41.1,26.6,30.06,West,264,2.0,16.0,56,0.00,,,0.00,Weather View 32 v70,2013-11-14 16:17:00,
2013-11-14 11:22:00,41.3,26.3,30.06,WSW,243,0.0,16.0,55,0.00,,,0.00,Weather View 32 v70,2013-11-14 16:22:00,
2013-11-14 11:27:00,41.3,26.3,30.06,SSW,207,3.0,16.0,55,0.00,,,0.00,Weather View 32 v70,2013-11-14 16:27:00,
2013-11-14 11:32:00,41.7,27.1,30.05,WSW,254,5.0,16.0,56,0.00,,,0.00,Weather View 32 v70,2013-11-14 16:32:00,
2013-11-14 11:37:00,41.9,26.9,30.05,WSW,254,9.0,15.0,55,0.00,,,0.00,Weather View 32 v70,2013-11-14 16:37:00,
2013-11-14 11:42:00,42.2,27.2,30.05,SSE,159,1.0,15.0,55,0.00,,,0.00,Weather View 32 v70,2013-11-14 16:42:00,
2013-11-14 11:47:00,42.8,27.7,30.05,West,272,6.0,15.0,55,0.00,,,0.00,Weather View 32 v70,2013-11-14 16:47:00,
2013-11-14 11:53:00,43.0,27.0,30.04,SW,222,3.0,15.0,53,0.00,,,0.00,Weather View 32 v70,2013-11-14 16:53:00,
2013-11-14 11:58:00,43.4,27.4,30.03,WNW,283,7.0,15.0,53,0.00,,,0.00,Weather View 32 v70,2013-11-14 16:58:00,
2013-11-14 12:03:00,43.7,27.7,30.03,WSW,242,2.0,16.0,53,0.00,,,0.00,Weather View 32 v70,2013-11-14 17:03:00,
2013-11-14 12:08:00,44.0,28.8,30.03,West,269,6.0,16.0,55,0.00,,,0.00,Weather View 32 v70,2013-11-14 17:08:00,
2013-11-14 12:13:00,44.0,27.9,30.02,SSW,200,15.0,16.0,53,0.00,,,0.00,Weather View 32 v70,2013-11-14 17:13:00,
2013-11-14 12:18:00,44.0,27.5,30.02,North,0,0.0,16.0,52,0.00,,,0.00,Weather View 32 v70,2013-11-14 17:18:00,
2013-11-14 12:23:00,44.3,27.3,30.02,WSW,240,0.0,16.0,51,0.00,,,0.00,Weather View 32 v70,2013-11-14 17:23:00,
2013-11-14 12:28:00,44.5,28.4,30.02,West,259,4.0,16.0,53,0.00,,,0.00,Weather View 32 v70,2013-11-14 17:28:00,
2013-11-14 12:33:00,44.7,28.1,30.02,WNW,290,3.0,16.0,52,0.00,,,0.00,Weather View 32 v70,2013-11-14 17:33:00,
2013-11-14 12:38:00,44.8,28.2,30.02,West,265,13.0,16.0,52,0.00,,,0.00,Weather View 32 v70,2013-11-14 17:38:00,
2013-11-14 12:43:00,45.0,28.4,30.01,SW,229,2.0,16.0,52,0.00,,,0.00,Weather View 32 v70,2013-11-14 17:43:00,
2013-11-14 12:48:00,45.0,27.9,30.01,West,266,1.0,16.0,51,0.00,,,0.00,Weather View 32 v70,2013-11-14 17:48:00,
2013-11-14 12:53:00,45.4,28.3,30.01,West,275,9.0,16.0,51,0.00,,,0.00,Weather View 32 v70,2013-11-14 17:53:00,
2013-11-14 12:58:00,45.4,28.3,30.00,WSW,253,0.0,16.0,51,0.00,,,0.00,Weather View 32 v70,2013-11-14 17:58:00,
2013-11-14 13:03:00,45.8,29.1,30.00,WSW,245,0.0,16.0,52,0.00,,,0.00,Weather View 32 v70,2013-11-14 18:03:00,
2013-11-14 13:08:00,46.2,28.6,30.00,WSW,254,9.0,16.0,50,0.00,,,0.00,Weather View 32 v70,2013-11-14 18:08:00,
2013-11-14 13:13:00,46.2,29.0,30.00,NW,318,10.0,16.0,51,0.00,,,0.00,Weather View 32 v70,2013-11-14 18:13:00,
2013-11-14 13:18:00,46.3,28.2,30.00,WSW,242,1.0,16.0,49,0.00,,,0.00,Weather View 32 v70,2013-11-14 18:18:00,
2013-11-14 13:23:00,46.5,28.8,29.99,West,263,2.0,16.0,50,0.00,,,0.00,Weather View 32 v70,2013-11-14 18:23:00,
2013-11-14 13:28:00,46.9,29.7,29.99,SW,236,5.0,16.0,51,0.00,,,0.00,Weather View 32 v70,2013-11-14 18:28:00,
2013-11-14 13:33:00,47.2,30.0,29.99,SSW,212,0.0,16.0,51,0.00,,,0.00,Weather View 32 v70,2013-11-14 18:33:00,
2013-11-14 13:38:00,47.4,29.7,29.99,WSW,251,5.0,16.0,50,0.00,,,0.00,Weather View 32 v70,2013-11-14 18:38:00,
2013-11-14 13:43:00,47.4,29.7,29.99,WSW,244,1.0,16.0,50,0.00,,,0.00,Weather View 32 v70,2013-11-14 18:43:00,
2013-11-14 13:48:00,47.6,28.8,29.99,West,276,6.0,16.0,48,0.00,,,0.00,Weather View 32 v70,2013-11-14 18:48:00,
2013-11-14 13:53:00,47.7,29.4,29.98,North,0,2.0,16.0,49,0.00,,,0.00,Weather View 32 v70,2013-11-14 18:53:00,
2013-11-14 13:58:00,47.9,28.6,29.98,West,262,3.0,14.0,47,0.00,,,0.00,Weather View 32 v70,2013-11-14 18:58:00,
2013-11-14 14:03:00,47.7,28.9,29.98,WSW,249,9.0,14.0,48,0.00,,,0.00,Weather View 32 v70,2013-11-14 19:03:00,
2013-11-14 14:08:00,47.9,29.1,29.98,West,267,3.0,14.0,48,0.00,,,0.00,Weather View 32 v70,2013-11-14 19:08:00,
2013-11-14 14:13:00,47.9,29.1,29.98,WSW,257,0.0,18.0,48,0.00,,,0.00,Weather View 32 v70,2013-11-14 19:13:00,
2013-11-14 14:18:00,48.1,29.3,29.98,WSW,242,3.0,18.0,48,0.00,,,0.00,Weather View 32 v70,2013-11-14 19:18:00,
2013-11-14 14:23:00,48.3,29.5,29.98,West,275,10.0,18.0,48,0.00,,,0.00,Weather View 32 v70,2013-11-14 19:23:00,
2013-11-14 14:28:00,48.6,29.2,29.98,West,281,5.0,18.0,47,0.00,,,0.00,Weather View 32 v70,2013-11-14 19:28:00,
2013-11-14 14:33:00,48.7,28.8,29.98,SW,215,2.0,18.0,46,0.00,,,0.00,Weather View 32 v70,2013-11-14 19:33:00,
2013-11-14 14:38:00,48.8,29.4,29.98,WSW,245,3.0,18.0,47,0.00,,,0.00,Weather View 32 v70,2013-11-14 19:38:00,
2013-11-14 14:43:00,49.0,29.1,29.98,SW,219,4.0,18.0,46,0.00,,,0.00,Weather View 32 v70,2013-11-14 19:43:00,
2013-11-14 14:48:00,49.1,30.2,29.97,WSW,252,7.0,18.0,48,0.00,,,0.00,Weather View 32 v70,2013-11-14 19:48:00,
2013-11-14 14:53:00,49.3,29.4,29.97,SSW,195,0.0,18.0,46,0.00,,,0.00,Weather View 32 v70,2013-11-14 19:53:00,
2013-11-14 14:58:00,49.5,28.5,29.97,SW,234,4.0,18.0,44,0.00,,,0.00,Weather View 32 v70,2013-11-14 19:58:00,
2013-11-14 15:03:00,49.6,29.6,29.97,WSW,239,5.0,18.0,46,0.00,,,0.00,Weather View 32 v70,2013-11-14 20:03:00,
2013-11-14 15:08:00,49.8,28.7,29.97,West,267,4.0,18.0,44,0.00,,,0.00,Weather View 32 v70,2013-11-14 20:08:00,
2013-11-14 15:13:00,49.8,28.7,29.97,SSW,198,5.0,16.0,44,0.00,,,0.00,Weather View 32 v70,2013-11-14 20:13:00,
2013-11-14 15:18:00,49.7,29.2,29.97,West,261,5.0,16.0,45,0.00,,,0.00,Weather View 32 v70,2013-11-14 20:18:00,
2013-11-14 15:23:00,49.7,28.6,29.97,WSW,244,1.0,16.0,44,0.00,,,0.00,Weather View 32 v70,2013-11-14 20:23:00,
2013-11-14 15:28:00,49.8,29.3,29.97,WNW,287,3.0,16.0,45,0.00,,,0.00,Weather View 32 v70,2013-11-14 20:28:00,
2013-11-14 15:33:00,49.7,28.6,29.97,SW,233,1.0,15.0,44,0.00,,,0.00,Weather View 32 v70,2013-11-14 20:33:00,
2013-11-14 15:38:00,49.6,28.5,29.97,WSW,248,5.0,15.0,44,0.00,,,0.00,Weather View 32 v70,2013-11-14 20:38:00,
2013-11-14 15:43:00,49.4,28.9,29.97,NW,304,2.0,15.0,45,0.00,,,0.00,Weather View 32 v70,2013-11-14 20:43:00,
2013-11-14 15:48:00,49.2,29.3,29.96,West,268,3.0,14.0,46,0.00,,,0.00,Weather View 32 v70,2013-11-14 20:48:00,
2013-11-14 15:53:00,48.9,28.5,29.97,North,0,1.0,14.0,45,0.00,,,0.00,Weather View 32 v70,2013-11-14 20:53:00,
2013-11-14 15:59:00,48.8,28.4,29.96,WNW,291,0.0,14.0,45,0.00,,,0.00,Weather View 32 v70,2013-11-14 20:59:00,
2013-11-14 16:04:00,48.7,28.3,29.96,WSW,257,4.0,14.0,45,0.00,,,0.00,Weather View 32 v70,2013-11-14 21:04:00,
2013-11-14 16:09:00,48.5,28.1,29.96,West,263,0.0,14.0,45,0.00,,,0.00,Weather View 32 v70,2013-11-14 21:09:00,
2013-11-14 16:14:00,48.3,27.4,29.96,SW,229,4.0,14.0,44,0.00,,,0.00,Weather View 32 v70,2013-11-14 21:14:00,
2013-11-14 16:19:00,48.5,27.5,29.96,West,269,7.0,16.0,44,0.00,,,0.00,Weather View 32 v70,2013-11-14 21:19:00,
2013-11-14 16:25:00,48.2,27.8,29.96,WSW,253,0.0,16.0,45,0.00,,,0.00,Weather View 32 v70,2013-11-14 21:25:00,
2013-11-14 16:30:00,47.8,27.5,29.96,WSW,246,0.0,16.0,45,0.00,,,0.00,Weather View 32 v70,2013-11-14 21:30:00,
2013-11-14 16:35:00,47.4,27.6,29.96,SSW,213,0.0,16.0,46,0.00,,,0.00,Weather View 32 v70,2013-11-14 21:35:00,
2013-11-14 16:40:00,47.1,27.4,29.95,WSW,257,1.0,16.0,46,0.00,,,0.00,Weather View 32 v70,2013-11-14 21:40:00,
2013-11-14 16:45:00,46.8,27.1,29.96,SW,225,0.0,16.0,46,0.00,,,0.00,Weather View 32 v70,2013-11-14 21:45:00,
2013-11-14 16:50:00,46.5,27.8,29.95,SSW,199,0.0,16.0,48,0.00,,,0.00,Weather View 32 v70,2013-11-14 21:50:00,
2013-11-14 16:55:00,46.2,27.0,29.95,WSW,244,0.0,16.0,47,0.00,,,0.00,Weather View 32 v70,2013-11-14 21:55:00,
2013-11-14 17:00:00,45.9,27.8,29.96,South,190,0.0,16.0,49,0.00,,,0.00,Weather View 32 v70,2013-11-14 22:00:00,
2013-11-14 17:05:00,45.6,27.5,29.95,SW,222,0.0,16.0,49,0.00,,,0.00,Weather View 32 v70,2013-11-14 22:05:00,
2013-11-14 17:10:00,45.5,27.4,29.96,WSW,253,0.0,16.0,49,0.00,,,0.00,Weather View 32 v70,2013-11-14 22:10:00,
2013-11-14 17:15:00,45.4,27.3,29.96,West,265,0.0,16.0,49,0.00,,,0.00,Weather View 32 v70,2013-11-14 22:15:00,
2013-11-14 17:20:00,45.0,26.5,29.96,WSW,256,0.0,12.0,48,0.00,,,0.00,Weather View 32 v70,2013-11-14 22:20:00,
2013-11-14 17:25:00,45.0,26.5,29.96,WSW,257,0.0,12.0,48,0.00,,,0.00,Weather View 32 v70,2013-11-14 22:25:00,
2013-11-14 17:30:00,45.0,26.5,29.96,West,263,5.0,12.0,48,0.00,,,0.00,Weather View 32 v70,2013-11-14 22:30:00,
2013-11-14 17:35:00,45.0,26.0,29.96,WSW,250,3.0,11.0,47,0.00,,,0.00,Weather View 32 v70,2013-11-14 22:35:00,
2013-11-14 17:40:00,45.1,25.5,29.96,WSW,250,3.0,11.0,46,0.00,,,0.00,Weather View 32 v70,2013-11-14 22:40:00,
2013-11-14 17:45:00,45.1,25.5,29.96,SW,218,0.0,11.0,46,0.00,,,0.00,Weather View 32 v70,2013-11-14 22:45:00,
2013-11-14 17:50:00,45.0,25.4,29.96,WSW,253,0.0,11.0,46,0.00,,,0.00,Weather View 32 v70,2013-11-14 22:50:00,
2013-11-14 17:55:00,44.9,25.3,29.96,WNW,294,3.0,11.0,46,0.00,,,0.00,Weather View 32 v70,2013-11-14 22:55:00,
2013-11-14 18:00:00,44.6,26.1,29.96,WSW,241,1.0,11.0,48,0.00,,,0.00,Weather View 32 v70,2013-11-14 23:00:00,
2013-11-14 18:05:00,44.4,26.4,29.96,WSW,239,0.0,11.0,49,0.00,,,0.00,Weather View 32 v70,2013-11-14 23:05:00,
2013-11-14 18:10:00,44.2,25.7,29.96,WSW,240,4.0,14.0,48,0.00,,,0.00,Weather View 32 v70,2013-11-14 23:10:00,
2013-11-14 18:15:00,44.3,26.3,29.95,SSW,205,3.0,14.0,49,0.00,,,0.00,Weather View 32 v70,2013-11-14 23:15:00,
2013-11-14 18:20:00,44.2,26.2,29.96,SSW,202,0.0,14.0,49,0.00,,,0.00,Weather View 32 v70,2013-11-14 23:20:00,
2013-11-14 18:25:00,43.9,25.9,29.96,WSW,252,0.0,14.0,49,0.00,,,0.00,Weather View 32 v70,2013-11-14 23:25:00,
2013-11-14 18:30:00,43.9,25.9,29.96,SW,222,4.0,14.0,49,0.00,,,0.00,Weather View 32 v70,2013-11-14 23:30:00,
2013-11-14 18:35:00,43.9,25.9,29.96,WNW,294,0.0,14.0,49,0.00,,,0.00,Weather View 32 v70,2013-11-14 23:35:00,
2013-11-14 18:40:00,43.8,26.3,29.96,WSW,240,3.0,14.0,50,0.00,,,0.00,Weather View 32 v70,2013-11-14 23:40:00,
2013-11-14 18:45:00,43.6,26.2,29.96,WNW,289,5.0,14.0,50,0.00,,,0.00,Weather View 32 v70,2013-11-14 23:45:00,
2013-11-14 18:50:00,43.5,26.1,29.96,SSW,211,0.0,14.0,50,0.00,,,0.00,Weather View 32 v70,2013-11-14 23:50:00,
2013-11-14 18:55:00,43.4,26.0,29.96,WSW,237,0.0,14.0,50,0.00,,,0.00,Weather View 32 v70,2013-11-14 23:55:00,
2013-11-14 19:00:00,43.4,26.0,29.96,West,272,1.0,14.0,50,0.00,,,0.00,Weather View 32 v70,2013-11-15 00:00:00,
2013-11-14 19:05:00,43.5,26.5,29.96,WSW,248,0.0,14.0,51,0.00,,,0.00,Weather View 32 v70,2013-11-15 00:05:00,
2013-11-14 19:10:00,43.6,26.2,29.97,SW,234,2.0,14.0,50,0.00,,,0.00,Weather View 32 v70,2013-11-15 00:10:00,
2013-11-14 19:15:00,43.5,26.5,29.97,SW,225,6.0,14.0,51,0.00,,,0.00,Weather View 32 v70,2013-11-15 00:15:00,
2013-11-14 19:20:00,43.4,26.9,29.97,West,281,0.0,16.0,52,0.00,,,0.00,Weather View 32 v70,2013-11-15 00:20:00,
2013-11-14 19:25:00,43.4,26.5,29.97,SW,232,4.0,16.0,51,0.00,,,0.00,Weather View 32 v70,2013-11-15 00:25:00,
2013-11-14 19:30:00,43.4,26.5,29.97,West,272,0.0,16.0,51,0.00,,,0.00,Weather View 32 v70,2013-11-15 00:30:00,
2013-11-14 19:35:00,43.3,26.8,29.97,West,271,0.0,16.0,52,0.00,,,0.00,Weather View 32 v70,2013-11-15 00:35:00,
2013-11-14 19:40:00,43.0,26.6,29.97,WSW,238,4.0,16.0,52,0.00,,,0.00,Weather View 32 v70,2013-11-15 00:40:00,
2013-11-14 19:45:00,42.8,26.4,29.97,West,267,5.0,16.0,52,0.00,,,0.00,Weather View 32 v70,2013-11-15 00:45:00,
2013-11-14 19:50:00,42.7,26.7,29.97,WSW,242,0.0,16.0,53,0.00,,,0.00,Weather View 32 v70,2013-11-15 00:50:00,
2013-11-14 19:55:00,42.5,26.5,29.97,WSW,238,1.0,16.0,53,0.00,,,0.00,Weather View 32 v70,2013-11-15 00:55:00,
2013-11-14 20:00:00,42.3,26.8,29.97,WNW,291,11.0,16.0,54,0.00,,,0.00,Weather View 32 v70,2013-11-15 01:00:00,
2013-11-14 20:05:00,42.1,27.1,29.97,SW,234,1.0,16.0,55,0.00,,,0.00,Weather View 32 v70,2013-11-15 01:05:00,
2013-11-14 20:10:00,41.9,26.9,29.97,West,260,5.0,16.0,55,0.00,,,0.00,Weather View 32 v70,2013-11-15 01:10:00,
2013-11-14 20:15:00,41.8,26.8,29.98,West,267,4.0,16.0,55,0.00,,,0.00,Weather View 32 v70,2013-11-15 01:15:00,
2013-11-14 20:20:00,41.6,27.0,29.98,WNW,293,0.0,16.0,56,0.00,,,0.00,Weather View 32 v70,2013-11-15 01:20:00,
2013-11-14 20:25:00,41.4,26.9,29.98,SW,232,1.0,16.0,56,0.00,,,0.00,Weather View 32 v70,2013-11-15 01:25:00,
2013-11-14 20:30:00,41.1,27.0,29.98,West,265,0.0,13.0,57,0.00,,,0.00,Weather View 32 v70,2013-11-15 01:30:00,
2013-11-14 20:35:00,40.8,26.7,29.98,West,269,0.0,12.0,57,0.00,,,0.00,Weather View 32 v70,2013-11-15 01:35:00,
2013-11-14 20:40:00,40.4,27.2,29.98,SW,236,1.0,12.0,59,0.00,,,0.00,Weather View 32 v70,2013-11-15 01:40:00,
2013-11-14 20:45:00,40.0,26.8,29.98,SW,236,0.0,12.0,59,0.00,,,0.00,Weather View 32 v70,2013-11-15 01:45:00,
2013-11-14 20:50:00,39.5,26.7,29.98,SW,236,0.0,12.0,60,0.00,,,0.00,Weather View 32 v70,2013-11-15 01:50:00,
2013-11-14 20:55:00,39.1,26.8,29.99,SW,236,0.0,12.0,61,0.00,,,0.00,Weather View 32 v70,2013-11-15 01:55:00,
2013-11-14 21:00:00,38.9,26.6,29.98,WSW,248,0.0,12.0,61,0.00,,,0.00,Weather View 32 v70,2013-11-15 02:00:00,
2013-11-14 21:05:00,38.7,26.4,29.98,West,267,3.0,12.0,61,0.00,,,0.00,Weather View 32 v70,2013-11-15 02:05:00,
2013-11-14 21:11:00,38.7,26.4,29.98,West,275,0.0,12.0,61,0.00,,,0.00,Weather View 32 v70,2013-11-15 02:11:00,
2013-11-14 21:16:00,38.6,26.3,29.98,West,275,0.0,12.0,61,0.00,,,0.00,Weather View 32 v70,2013-11-15 02:16:00,
2013-11-14 21:21:00,38.5,26.6,29.98,West,275,0.0,12.0,62,0.00,,,0.00,Weather View 32 v70,2013-11-15 02:21:00,
2013-11-14 21:26:00,38.3,26.8,29.98,West,277,0.0,7.0,63,0.00,,,0.00,Weather View 32 v70,2013-11-15 02:26:00,
2013-11-14 21:31:00,37.9,26.8,29.98,West,279,0.0,7.0,64,0.00,,,0.00,Weather View 32 v70,2013-11-15 02:31:00,
2013-11-14 21:36:00,37.5,26.8,29.98,West,279,0.0,7.0,65,0.00,,,0.00,Weather View 32 v70,2013-11-15 02:36:00,
2013-11-14 21:41:00,37.0,26.7,29.98,West,277,0.0,6.0,66,0.00,,,0.00,Weather View 32 v70,2013-11-15 02:41:00,
2013-11-14 21:46:00,36.5,26.6,29.99,West,277,0.0,6.0,67,0.00,,,0.00,Weather View 32 v70,2013-11-15 02:46:00,
2013-11-14 21:51:00,36.1,26.2,29.99,West,277,0.0,6.0,67,0.00,,,0.00,Weather View 32 v70,2013-11-15 02:51:00,
2013-11-14 21:56:00,35.7,26.2,29.99,West,277,0.0,6.0,68,0.00,,,0.00,Weather View 32 v70,2013-11-15 02:56:00,
2013-11-14 22:01:00,35.3,26.1,29.99,West,277,0.0,6.0,69,0.00,,,0.00,Weather View 32 v70,2013-11-15 03:01:00,
2013-11-14 22:06:00,35.1,25.9,29.99,West,277,0.0,6.0,69,0.00,,,0.00,Weather View 32 v70,2013-11-15 03:06:00,
2013-11-14 22:11:00,34.9,26.1,29.99,West,277,0.0,6.0,70,0.00,,,0.00,Weather View 32 v70,2013-11-15 03:11:00,
2013-11-14 22:16:00,34.8,26.0,29.98,WSW,240,0.0,6.0,70,0.00,,,0.00,Weather View 32 v70,2013-11-15 03:16:00,
2013-11-14 22:21:00,34.8,26.0,29.99,WSW,240,0.0,6.0,70,0.00,,,0.00,Weather View 32 v70,2013-11-15 03:21:00,
2013-11-14 22:26:00,34.8,26.4,29.99,WSW,245,0.0,4.0,71,0.00,,,0.00,Weather View 32 v70,2013-11-15 03:26:00,
2013-11-14 22:31:00,34.8,26.4,29.99,WSW,245,0.0,4.0,71,0.00,,,0.00,Weather View 32 v70,2013-11-15 03:31:00,
2013-11-14 22:36:00,34.9,26.1,29.99,WSW,245,0.0,4.0,70,0.00,,,0.00,Weather View 32 v70,2013-11-15 03:36:00,
2013-11-14 22:41:00,35.0,26.2,29.99,WSW,245,0.0,4.0,70,0.00,,,0.00,Weather View 32 v70,2013-11-15 03:41:00,
2013-11-14 22:46:00,34.9,26.1,29.99,WSW,245,0.0,4.0,70,0.00,,,0.00,Weather View 32 v70,2013-11-15 03:46:00,
2013-11-14 22:51:00,34.8,26.0,29.99,WSW,245,0.0,4.0,70,0.00,,,0.00,Weather View 32 v70,2013-11-15 03:51:00,
2013-11-14 22:56:00,34.6,25.8,29.99,WSW,245,0.0,4.0,70,0.00,,,0.00,Weather View 32 v70,2013-11-15 03:56:00,
2013-11-14 23:01:00,34.6,26.2,29.99,WSW,245,0.0,4.0,71,0.00,,,0.00,Weather View 32 v70,2013-11-15 04:01:00,
2013-11-14 23:06:00,34.6,26.2,29.99,WSW,245,0.0,4.0,71,0.00,,,0.00,Weather View 32 v70,2013-11-15 04:06:00,
2013-11-14 23:11:00,34.7,26.3,29.99,WSW,246,0.0,4.0,71,0.00,,,0.00,Weather View 32 v70,2013-11-15 04:11:00,
2013-11-14 23:16:00,34.8,26.0,29.99,WSW,246,0.0,4.0,70,0.00,,,0.00,Weather View 32 v70,2013-11-15 04:16:00,
2013-11-14 23:21:00,34.8,26.4,29.99,WSW,245,0.0,3.0,71,0.00,,,0.00,Weather View 32 v70,2013-11-15 04:21:00,
2013-11-14 23:26:00,34.8,26.0,29.99,WSW,246,0.0,2.0,70,0.00,,,0.00,Weather View 32 v70,2013-11-15 04:26:00,
2013-11-14 23:31:00,34.8,26.0,29.99,WSW,245,0.0,3.0,70,0.00,,,0.00,Weather View 32 v70,2013-11-15 04:31:00,
2013-11-14 23:36:00,34.6,25.8,29.99,WSW,246,0.0,3.0,70,0.00,,,0.00,Weather View 32 v70,2013-11-15 04:36:00,
2013-11-14 23:41:00,34.5,26.1,29.99,WSW,246,0.0,3.0,71,0.00,,,0.00,Weather View 32 v70,2013-11-15 04:41:00,
2013-11-14 23:46:00,34.4,26.0,29.99,SW,236,0.0,5.0,71,0.00,,,0.00,Weather View 32 v70,2013-11-15 04:46:00,
2013-11-14 23:51:00,34.4,25.6,29.99,West,276,0.0,5.0,70,0.00,,,0.00,Weather View 32 v70,2013-11-15 04:51:00,
2013-11-14 23:56:00,34.4,25.6,29.99,West,277,0.0,5.0,70,0.00,,,0.00,Weather View 32 v70,2013-11-15 04:56:00,